| time (UTC) | temp C | wind direction | speed KPH | gust KPH | rain 1hr cm | rain 24hr cm | rain mn cm | humidity % | barometer mb |
| 20260503070330 | 11 | 304 | 3.2 | 12.9 | 0.00 | 0.05 | 0.00 | 75 | 1017.8 |
| 20260503070130 | 11 | 152 | 3.2 | 12.9 | 0.00 | 0.05 | 0.05 | 75 | 1017.9 |
| 20260503060330 | 12 | 271 | 3.2 | 16.1 | 0.00 | 0.05 | 0.05 | 67 | 1017.6 |
| 20260503060126 | 12 | 271 | 8.0 | 22.5 | 0.00 | 0.05 | 0.05 | 65 | 1017.6 |
| 20260503054829 | 12 | 298 | 12.9 | 22.5 | 0.00 | 0.05 | 0.05 | 65 | 1017.6 |
| 20260503054444 | 12 | 302 | 16.1 | 29.0 | 0.00 | 0.05 | 0.05 | 66 | 1017.6 |
| 20260503054422 | 12 | 333 | 14.5 | 29.0 | 0.00 | 0.05 | 0.05 | 66 | 1017.5 |
| 20260503053329 | 12 | 5 | 14.5 | 25.7 | 0.00 | 0.05 | 0.05 | 67 | 1017.5 |
| 20260503052822 | 12 | 347 | 16.1 | 27.4 | 0.00 | 0.05 | 0.05 | 68 | 1017.5 |
| 20260503052318 | 12 | 311 | 16.1 | 27.4 | 0.00 | 0.05 | 0.05 | 68 | 1017.6 |
| 20260503051808 | 12 | 342 | 16.1 | 30.6 | 0.00 | 0.05 | 0.05 | 68 | 1017.5 |
| 20260503051306 | 12 | 325 | 17.7 | 30.6 | 0.00 | 0.05 | 0.05 | 69 | 1017.6 |
| 20260503050915 | 12 | 5 | 16.1 | 25.7 | 0.00 | 0.05 | 0.05 | 70 | 1017.6 |
| 20260503050853 | 12 | 355 | 16.1 | 27.4 | 0.00 | 0.05 | 0.05 | 69 | 1017.5 |
| 20260503045802 | 12 | 324 | 17.7 | 29.0 | 0.00 | 0.05 | 0.05 | 69 | 1017.5 |
| 20260503045301 | 12 | 342 | 17.7 | 30.6 | 0.00 | 0.05 | 0.05 | 68 | 1017.2 |
| 20260503045055 | 12 | 322 | 19.3 | 30.6 | 0.03 | 0.05 | 0.05 | 68 | 1017.0 |
| 20260503044301 | 12 | 325 | 19.3 | 30.6 | 0.03 | 0.05 | 0.05 | 68 | 1017.0 |
| 20260503043801 | 12 | 317 | 16.1 | 25.7 | 0.03 | 0.05 | 0.05 | 66 | 1017.0 |
| 20260503043303 | 12 | 342 | 14.5 | 24.1 | 0.03 | 0.05 | 0.05 | 66 | 1017.0 |
| 20260503042802 | 12 | 5 | 16.1 | 25.7 | 0.03 | 0.05 | 0.05 | 65 | 1017.0 |
| 20260503042301 | 12 | 338 | 14.5 | 25.7 | 0.03 | 0.05 | 0.05 | 65 | 1017.1 |
| 20260503042052 | 12 | 350 | 12.9 | 22.5 | 0.03 | 0.05 | 0.05 | 67 | 1017.0 |
| 20260503041302 | 13 | 340 | 11.3 | 19.3 | 0.03 | 0.05 | 0.05 | 65 | 1017.0 |
| 20260503041059 | 12 | 325 | 11.3 | 19.3 | 0.03 | 0.05 | 0.05 | 66 | 1017.1 |
| 20260503040300 | 12 | 16 | 11.3 | 19.3 | 0.05 | 0.05 | 0.05 | 66 | 1017.0 |
| 20260503035802 | 12 | 322 | 11.3 | 19.3 | 0.05 | 0.05 | 0.05 | 67 | 1017.0 |
| 20260503035304 | 12 | 347 | 9.7 | 16.1 | 0.05 | 0.05 | 0.05 | 70 | 1016.9 |
| 20260503034801 | 12 | 321 | 9.7 | 16.1 | 0.03 | 0.03 | 0.03 | 69 | 1016.7 |
| 20260503034300 | 12 | 292 | 9.7 | 17.7 | 0.03 | 0.03 | 0.03 | 68 | 1016.8 |
| 20260503033801 | 12 | 317 | 8.0 | 17.7 | 0.03 | 0.03 | 0.03 | 68 | 1016.8 |
| 20260503033301 | 12 | 321 | 6.4 | 20.9 | 0.03 | 0.03 | 0.03 | 68 | 1016.8 |
| 20260503032802 | 12 | 260 | 6.4 | 20.9 | 0.03 | 0.03 | 0.03 | 68 | 1016.8 |
| 20260503032551 | 13 | 223 | 8.0 | 27.4 | 0.03 | 0.03 | 0.03 | 67 | 1016.6 |
| 20260503031801 | 12 | 246 | 11.3 | 27.4 | 0.03 | 0.03 | 0.03 | 69 | 1016.4 |
| 20260503031648 | 13 | 231 | 17.7 | 30.6 | 0.03 | 0.03 | 0.03 | 65 | 1016.3 |
| 20260503031339 | 12 | 309 | 14.5 | 30.6 | 0.03 | 0.03 | 0.03 | 68 | 1016.3 |
| 20260503030301 | 13 | 346 | 17.7 | 30.6 | 0.00 | 0.00 | 0.00 | 66 | 1016.6 |
| 20260503030059 | 13 | 297 | 14.5 | 30.6 | 0.00 | 0.00 | 0.00 | 65 | 1016.6 |
| 20260503025301 | 13 | 344 | 16.1 | 27.4 | 0.00 | 0.00 | 0.00 | 63 | 1016.4 |
| 20260503025048 | 14 | 335 | 17.7 | 30.6 | 0.00 | 0.00 | 0.00 | 60 | 1016.4 |
| 20260503024301 | 15 | 350 | 16.1 | 30.6 | 0.00 | 0.00 | 0.00 | 58 | 1016.6 |
| 20260503024048 | 16 | 328 | 12.9 | 24.1 | 0.00 | 0.00 | 0.00 | 47 | 1016.3 |
| 20260503023301 | 16 | 355 | 14.5 | 24.1 | 0.00 | 0.00 | 0.00 | 47 | 1016.1 |
| 20260503022803 | 16 | 5 | 16.1 | 29.0 | 0.00 | 0.00 | 0.00 | 46 | 1016.0 |
| 20260503022301 | 16 | 309 | 14.5 | 29.0 | 0.00 | 0.00 | 0.00 | 45 | 1015.7 |
| 20260503022053 | 16 | 306 | 12.9 | 20.9 | 0.00 | 0.00 | 0.00 | 47 | 1015.9 |
| 20260503021301 | 16 | 344 | 14.5 | 27.4 | 0.00 | 0.00 | 0.00 | 46 | 1015.7 |
| 20260503020801 | 16 | 329 | 14.5 | 27.4 | 0.00 | 0.00 | 0.00 | 46 | 1015.7 |
| 20260503020301 | 16 | 341 | 12.9 | 22.5 | 0.00 | 0.00 | 0.00 | 46 | 1015.6 |
| 20260503015801 | 17 | 305 | 12.9 | 20.9 | 0.00 | 0.00 | 0.00 | 43 | 1015.6 |
| 20260503015301 | 17 | 355 | 12.9 | 20.9 | 0.00 | 0.00 | 0.00 | 43 | 1015.5 |
| 20260503014801 | 17 | 332 | 14.5 | 20.9 | 0.00 | 0.00 | 0.00 | 45 | 1015.5 |
| 20260503014302 | 17 | 343 | 12.9 | 22.5 | 0.00 | 0.00 | 0.00 | 44 | 1015.5 |
| 20260503013801 | 17 | 347 | 11.3 | 22.5 | 0.00 | 0.00 | 0.00 | 40 | 1015.6 |
| 20260503013301 | 17 | 315 | 11.3 | 19.3 | 0.00 | 0.00 | 0.00 | 40 | 1015.6 |
| 20260503012801 | 17 | 333 | 12.9 | 20.9 | 0.00 | 0.00 | 0.00 | 40 | 1015.7 |
| 20260503012300 | 17 | 333 | 12.9 | 20.9 | 0.00 | 0.00 | 0.00 | 39 | 1015.6 |
| 20260503011801 | 17 | 305 | 12.9 | 24.1 | 0.00 | 0.00 | 0.00 | 39 | 1015.5 |
| 20260503011300 | 18 | 254 | 11.3 | 24.1 | 0.00 | 0.00 | 0.00 | 38 | 1015.6 |
| 20260503010801 | 18 | 327 | 6.4 | 22.5 | 0.00 | 0.00 | 0.00 | 39 | 1015.5 |
| 20260503010556 | 18 | 292 | 4.8 | 16.1 | 0.00 | 0.00 | 0.00 | 39 | 1015.5 |
| 20260503005757 | 18 | 246 | 4.8 | 11.3 | 0.00 | 0.00 | 0.00 | 37 | 1015.6 |
| 20260503005250 | 18 | 339 | 8.0 | 19.3 | 0.00 | 0.00 | 0.00 | 39 | 1015.5 |
| 20260503004749 | 18 | 86 | 12.9 | 22.5 | 0.00 | 0.00 | 0.00 | 40 | 1015.5 |
| 20260503004251 | 18 | 67 | 17.7 | 30.6 | 0.00 | 0.00 | 0.00 | 40 | 1015.5 |
| 20260503003752 | 18 | 62 | 20.9 | 32.2 | 0.00 | 0.00 | 0.00 | 40 | 1015.3 |
| 20260503003542 | 18 | 54 | 22.5 | 37.0 | 0.00 | 0.00 | 0.00 | 39 | 1015.2 |
| 20260503002751 | 18 | 45 | 24.1 | 37.0 | 0.00 | 0.00 | 0.00 | 40 | 1015.2 |
| 20260503002251 | 19 | 80 | 22.5 | 35.4 | 0.00 | 0.00 | 0.00 | 36 | 1015.2 |
| 20260503001749 | 20 | 74 | 19.3 | 33.8 | 0.00 | 0.00 | 0.00 | 35 | 1015.0 |
| 20260503001250 | 20 | 82 | 16.1 | 25.7 | 0.00 | 0.00 | 0.00 | 33 | 1015.0 |
| 20260503000750 | 20 | 111 | 14.5 | 20.9 | 0.00 | 0.00 | 0.00 | 32 | 1015.2 |
| 20260503000254 | 20 | 102 | 17.7 | 30.6 | 0.00 | 0.00 | 0.00 | 36 | 1015.2 |
| 20260502235751 | 20 | 60 | 24.1 | 38.6 | 0.00 | 0.00 | 0.00 | 36 | 1015.0 |
| 20260502235246 | 20 | 59 | 27.4 | 38.6 | 0.00 | 0.00 | 0.00 | 35 | 1014.8 |
| 20260502235043 | 20 | 83 | 27.4 | 37.0 | 0.00 | 0.00 | 0.00 | 33 | 1015.2 |
| 20260502234246 | 20 | 57 | 25.7 | 35.4 | 0.00 | 0.00 | 0.00 | 32 | 1015.2 |
| 20260502233747 | 21 | 83 | 22.5 | 30.6 | 0.00 | 0.00 | 0.00 | 31 | 1015.2 |
| 20260502233245 | 21 | 92 | 19.3 | 30.6 | 0.00 | 0.00 | 0.00 | 30 | 1015.2 |
| 20260502232746 | 21 | 88 | 14.5 | 24.1 | 0.00 | 0.00 | 0.00 | 29 | 1015.0 |
| 20260502232245 | 21 | 103 | 14.5 | 20.9 | 0.00 | 0.00 | 0.00 | 30 | 1015.0 |
| 20260502232114 | 21 | 102 | 16.1 | 20.9 | 0.00 | 0.00 | 0.00 | 29 | 1015.2 |
| 20260502231248 | 21 | 107 | 17.7 | 29.0 | 0.00 | 0.00 | 0.00 | 30 | 1015.0 |
| 20260502230747 | 21 | 95 | 20.9 | 30.6 | 0.00 | 0.00 | 0.00 | 30 | 1015.2 |
| 20260502230643 | 21 | 92 | 11.3 | 33.8 | 0.00 | 0.00 | 0.00 | 28 | 1015.2 |
| 20260502230324 | 21 | 104 | 17.7 | 33.8 | 0.00 | 0.00 | 0.00 | 29 | 1015.3 |
| 20260502225245 | 21 | 133 | 9.7 | 17.7 | 0.00 | 0.00 | 0.00 | 28 | 1015.3 |
| 20260502224746 | 22 | 130 | 9.7 | 17.7 | 0.00 | 0.00 | 0.00 | 28 | 1015.4 |
| 20260502224247 | 22 | 132 | 9.7 | 20.9 | 0.00 | 0.00 | 0.00 | 27 | 1015.4 |
| 20260502223842 | 22 | 118 | 8.0 | 17.7 | 0.00 | 0.00 | 0.00 | 28 | 1015.4 |
| 20260502223824 | 22 | 135 | 9.7 | 20.9 | 0.00 | 0.00 | 0.00 | 26 | 1015.4 |
| 20260502223042 | 22 | 182 | 11.3 | 19.3 | 0.00 | 0.00 | 0.00 | 26 | 1015.5 |
| 20260502222244 | 22 | 156 | 9.7 | 19.3 | 0.00 | 0.00 | 0.00 | 27 | 1015.6 |
| 20260502222054 | 22 | 171 | 11.3 | 17.7 | 0.00 | 0.00 | 0.00 | 28 | 1015.6 |
| 20260502221243 | 22 | 140 | 12.9 | 20.9 | 0.00 | 0.00 | 0.00 | 28 | 1015.7 |
| 20260502220743 | 22 | 113 | 9.7 | 20.9 | 0.00 | 0.00 | 0.00 | 27 | 1015.7 |
| 20260502220549 | 22 | 133 | 9.7 | 19.3 | 0.00 | 0.00 | 0.00 | 27 | 1015.9 |
| 20260502215740 | 22 | 185 | 9.7 | 19.3 | 0.00 | 0.00 | 0.00 | 26 | 1015.9 |
| 20260502215242 | 22 | 192 | 8.0 | 16.1 | 0.00 | 0.00 | 0.00 | 26 | 1015.9 |
| 20260502214737 | 22 | 229 | 9.7 | 17.7 | 0.00 | 0.00 | 0.00 | 26 | 1016.0 |
| 20260502214235 | 21 | 136 | 8.0 | 17.7 | 0.00 | 0.00 | 0.00 | 26 | 1016.1 |
| 20260502213736 | 22 | 229 | 6.4 | 12.9 | 0.00 | 0.00 | 0.00 | 29 | 1016.0 |
| 20260502213236 | 22 | 126 | 4.8 | 12.9 | 0.00 | 0.00 | 0.00 | 27 | 1016.1 |
| 20260502212733 | 22 | 204 | 3.2 | 11.3 | 0.00 | 0.00 | 0.00 | 28 | 1016.1 |
| 20260502212233 | 22 | 118 | 6.4 | 12.9 | 0.00 | 0.00 | 0.00 | 28 | 1016.2 |
| 20260502211731 | 22 | 181 | 4.8 | 12.9 | 0.00 | 0.00 | 0.00 | 28 | 1016.3 |
| 20260502211231 | 22 | 73 | 4.8 | 9.7 | 0.00 | 0.00 | 0.00 | 29 | 1016.3 |
| 20260502210731 | 22 | 115 | 6.4 | 16.1 | 0.00 | 0.00 | 0.00 | 31 | 1016.4 |
| 20260502210229 | 22 | 115 | 8.0 | 16.1 | 0.00 | 0.00 | 0.00 | 29 | 1016.6 |
| 20260502205730 | 21 | 136 | 8.0 | 17.7 | 0.00 | 0.00 | 0.00 | 29 | 1016.8 |
| 20260502205229 | 21 | 150 | 6.4 | 17.7 | 0.00 | 0.00 | 0.00 | 31 | 1016.8 |
| 20260502204724 | 21 | 238 | 4.8 | 9.7 | 0.00 | 0.00 | 0.00 | 29 | 1016.9 |
| 20260502204217 | 21 | 207 | 8.0 | 14.5 | 0.00 | 0.00 | 0.00 | 29 | 1017.0 |
| 20260502203710 | 22 | 158 | 8.0 | 19.3 | 0.00 | 0.00 | 0.00 | 27 | 1017.0 |
| 20260502203209 | 22 | 79 | 6.4 | 19.3 | 0.00 | 0.00 | 0.00 | 31 | 1016.9 |
| 20260502202709 | 22 | 137 | 4.8 | 12.9 | 0.00 | 0.00 | 0.00 | 28 | 1017.0 |
| 20260502202208 | 22 | 250 | 4.8 | 12.9 | 0.00 | 0.00 | 0.00 | 25 | 1017.1 |
| 20260502202014 | 22 | 107 | 3.2 | 11.3 | 0.00 | 0.00 | 0.00 | 31 | 1017.1 |
| 20260502201206 | 22 | 355 | 3.2 | 9.7 | 0.00 | 0.00 | 0.00 | 30 | 1017.1 |
| 20260502200706 | 21 | 265 | 3.2 | 9.7 | 0.00 | 0.00 | 0.00 | 28 | 1017.2 |
| 20260502200205 | 22 | 170 | 3.2 | 8.0 | 0.00 | 0.00 | 0.00 | 30 | 1017.2 |
| 20260502195704 | 22 | 143 | 4.8 | 12.9 | 0.00 | 0.00 | 0.00 | 33 | 1017.2 |
| 20260502195205 | 22 | 80 | 6.4 | 12.9 | 0.00 | 0.00 | 0.00 | 34 | 1017.4 |
| 20260502194704 | 20 | 127 | 4.8 | 11.3 | 0.00 | 0.00 | 0.00 | 32 | 1017.5 |
| 20260502194204 | 20 | 174 | 4.8 | 12.9 | 0.00 | 0.00 | 0.00 | 32 | 1017.5 |
| 20260502193703 | 20 | 240 | 6.4 | 12.9 | 0.00 | 0.00 | 0.00 | 31 | 1017.5 |
| 20260502193202 | 21 | 193 | 8.0 | 17.7 | 0.00 | 0.00 | 0.00 | 30 | 1017.6 |
| 20260502192701 | 21 | 220 | 8.0 | 17.7 | 0.00 | 0.00 | 0.00 | 30 | 1017.6 |
| 20260502192458 | 21 | 134 | 6.4 | 17.7 | 0.00 | 0.00 | 0.00 | 32 | 1017.6 |
| 20260502191702 | 21 | 87 | 6.4 | 14.5 | 0.00 | 0.00 | 0.00 | 30 | 1017.6 |
| 20260502191202 | 21 | 131 | 6.4 | 12.9 | 0.00 | 0.00 | 0.00 | 30 | 1017.6 |
| 20260502190702 | 21 | 125 | 4.8 | 12.9 | 0.00 | 0.00 | 0.00 | 33 | 1017.6 |
| 20260502190455 | 21 | 98 | 4.8 | 12.9 | 0.00 | 0.00 | 0.00 | 33 | 1017.6 |
| 20260502185653 | 20 | 166 | 4.8 | 12.9 | 0.00 | 0.00 | 0.00 | 31 | 1017.6 |
| 20260502185146 | 22 | 155 | 6.4 | 11.3 | 0.00 | 0.00 | 0.00 | 31 | 1017.7 |
| 20260502184640 | 21 | 137 | 6.4 | 17.7 | 0.00 | 0.00 | 0.00 | 37 | 1017.7 |
| 20260502184133 | 20 | 165 | 4.8 | 17.7 | 0.00 | 0.00 | 0.00 | 32 | 1017.8 |
| 20260502183635 | 20 | 117 | 4.8 | 12.9 | 0.00 | 0.00 | 0.00 | 35 | 1017.8 |
| 20260502183135 | 19 | 179 | 6.4 | 16.1 | 0.00 | 0.00 | 0.00 | 34 | 1017.9 |
| 20260502182634 | 19 | 111 | 8.0 | 17.7 | 0.00 | 0.00 | 0.00 | 34 | 1017.9 |
| 20260502182432 | 19 | 140 | 8.0 | 17.7 | 0.00 | 0.00 | 0.00 | 34 | 1018.1 |
| 20260502181635 | 20 | 132 | 8.0 | 16.1 | 0.00 | 0.00 | 0.00 | 36 | 1018.1 |
| 20260502181135 | 20 | 153 | 8.0 | 16.1 | 0.00 | 0.00 | 0.00 | 32 | 1018.1 |
| 20260502180632 | 20 | 92 | 6.4 | 14.5 | 0.00 | 0.00 | 0.00 | 38 | 1018.2 |
| 20260502180137 | 20 | 132 | 6.4 | 16.1 | 0.00 | 0.00 | 0.00 | 33 | 1018.2 |
| 20260502170424 | 18 | 150 | 6.4 | 12.9 | 0.00 | 0.00 | 0.00 | 38 | 1018.3 |
| 20260502164123 | 18 | 117 | 6.4 | 11.3 | 0.00 | 0.00 | 0.00 | 41 | 1018.3 |
| 20260502163622 | 18 | 123 | 6.4 | 12.9 | 0.00 | 0.00 | 0.00 | 40 | 1018.4 |
| 20260502163213 | 17 | 140 | 6.4 | 11.3 | 0.00 | 0.00 | 0.00 | 44 | 1018.3 |
| 20260502163158 | 17 | 132 | 6.4 | 12.9 | 0.00 | 0.00 | 0.00 | 42 | 1018.3 |
| 20260502162417 | 16 | 78 | 3.2 | 9.7 | 0.00 | 0.00 | 0.00 | 43 | 1018.4 |
| 20260502161622 | 16 | 109 | 3.2 | 9.7 | 0.00 | 0.00 | 0.00 | 46 | 1018.4 |
| 20260502161122 | 15 | 114 | 3.2 | 6.4 | 0.00 | 0.00 | 0.00 | 43 | 1018.4 |
| 20260502160622 | 15 | 122 | 3.2 | 6.4 | 0.00 | 0.00 | 0.00 | 45 | 1018.4 |
| 20260502160121 | 15 | 96 | 3.2 | 6.4 | 0.00 | 0.00 | 0.00 | 49 | 1018.5 |
| 20260502152107 | 12 | 63 | 1.6 | 6.4 | 0.00 | 0.00 | 0.00 | 57 | 1018.3 |
| 20260502151605 | 11 | 63 | 0.0 | 3.2 | 0.00 | 0.00 | 0.00 | 57 | 1018.4 |
| 20260502151203 | 11 | 63 | 0.0 | 3.2 | 0.00 | 0.00 | 0.00 | 63 | 1018.3 |
| 20260502151142 | 10 | 63 | 0.0 | 3.2 | 0.00 | 0.00 | 0.00 | 56 | 1018.4 |
| 20260502130600 | 8 | 55 | 3.2 | 4.8 | 0.00 | 0.00 | 0.00 | 59 | 1017.6 |
| 20260502123541 | 8 | 334 | 1.6 | 4.8 | 0.00 | 0.00 | 0.00 | 60 | 1017.6 |
| 20260502123040 | 8 | 234 | 3.2 | 6.4 | 0.00 | 0.00 | 0.00 | 58 | 1017.5 |
| 20260502122540 | 9 | 65 | 4.8 | 8.0 | 0.00 | 0.00 | 0.00 | 55 | 1017.6 |
| 20260502122038 | 9 | 240 | 6.4 | 8.0 | 0.00 | 0.00 | 0.00 | 55 | 1017.5 |
| 20260502121538 | 9 | 242 | 6.4 | 11.3 | 0.00 | 0.00 | 0.00 | 54 | 1017.6 |
| 20260502121038 | 9 | 242 | 8.0 | 11.3 | 0.00 | 0.00 | 0.00 | 55 | 1017.6 |
| 20260502120536 | 9 | 242 | 6.4 | 11.3 | 0.00 | 0.00 | 0.00 | 55 | 1017.6 |
| 20260502120145 | 9 | 224 | 4.8 | 8.0 | 0.00 | 0.00 | 0.00 | 56 | 1017.6 |
| 20260502120122 | 9 | 232 | 6.4 | 8.0 | 0.00 | 0.00 | 0.00 | 55 | 1017.6 |
| 20260502115034 | 8 | 201 | 1.6 | 6.4 | 0.00 | 0.00 | 0.00 | 56 | 1017.6 |
| 20260502114826 | 9 | 209 | 3.2 | 6.4 | 0.00 | 0.00 | 0.00 | 57 | 1017.6 |
| 20260502114029 | 10 | 183 | 4.8 | 6.4 | 0.00 | 0.00 | 0.00 | 53 | 1017.6 |
| 20260502113823 | 10 | 240 | 6.4 | 8.0 | 0.00 | 0.00 | 0.00 | 53 | 1017.6 |
| 20260502113029 | 10 | 246 | 6.4 | 9.7 | 0.00 | 0.00 | 0.00 | 53 | 1017.7 |
| 20260502112531 | 9 | 244 | 4.8 | 9.7 | 0.00 | 0.00 | 0.00 | 52 | 1017.8 |
| 20260502112030 | 9 | 241 | 4.8 | 9.7 | 0.00 | 0.00 | 0.00 | 52 | 1017.8 |
| 20260502111610 | 10 | 206 | 6.4 | 9.7 | 0.00 | 0.00 | 0.00 | 52 | 1017.8 |
| 20260502111556 | 10 | 254 | 6.4 | 9.7 | 0.00 | 0.00 | 0.00 | 51 | 1017.7 |
| 20260502110517 | 10 | 242 | 6.4 | 9.7 | 0.00 | 0.00 | 0.00 | 52 | 1017.8 |
| 20260502110013 | 10 | 245 | 4.8 | 8.0 | 0.00 | 0.00 | 0.00 | 50 | 1017.7 |
| 20260502105514 | 10 | 219 | 3.2 | 6.4 | 0.00 | 0.00 | 0.00 | 51 | 1017.7 |
| 20260502105013 | 10 | 220 | 4.8 | 6.4 | 0.00 | 0.00 | 0.00 | 50 | 1017.7 |
| 20260502104513 | 10 | 232 | 3.2 | 6.4 | 0.00 | 0.00 | 0.00 | 49 | 1017.7 |
| 20260502104012 | 10 | 204 | 3.2 | 6.4 | 0.00 | 0.00 | 0.00 | 49 | 1017.7 |
| 20260502103511 | 10 | 202 | 1.6 | 6.4 | 0.00 | 0.00 | 0.00 | 51 | 1017.7 |
| 20260502103013 | 10 | 234 | 1.6 | 6.4 | 0.00 | 0.00 | 0.00 | 49 | 1017.7 |
| 20260502102513 | 10 | 234 | 4.8 | 8.0 | 0.00 | 0.00 | 0.00 | 49 | 1017.7 |
| 20260502102257 | 10 | 236 | 6.4 | 9.7 | 0.00 | 0.00 | 0.00 | 48 | 1017.8 |
| 20260502101510 | 10 | 232 | 6.4 | 9.7 | 0.00 | 0.00 | 0.00 | 48 | 1017.8 |
| 20260502101009 | 11 | 247 | 6.4 | 8.0 | 0.00 | 0.00 | 0.00 | 46 | 1017.7 |
| 20260502100510 | 11 | 222 | 4.8 | 8.0 | 0.00 | 0.00 | 0.00 | 44 | 1017.7 |
| 20260502091009 | 11 | 248 | 4.8 | 8.0 | 0.00 | 0.00 | 0.00 | 37 | 1018.1 |
| 20260502090510 | 11 | 206 | 4.8 | 8.0 | 0.00 | 0.00 | 0.00 | 37 | 1018.1 |
| 20260502071501 | 13 | 268 | 6.4 | 9.7 | 0.00 | 0.00 | 0.00 | 29 | 1018.6 |
| 20260502071001 | 13 | 265 | 3.2 | 9.7 | 0.00 | 0.00 | 0.00 | 28 | 1018.7 |
| 20260502070501 | 13 | 257 | 1.6 | 4.8 | 0.00 | 0.00 | 0.00 | 28 | 1018.7 |